Regional Weather Roundup
Issued by NWS

Home | Current Version | Previous Version | Text Only | Print | Product List | Glossary On
Versions: 1 2 3 4 5 6 7 8 9 10 11 12 13 14 15 16 17 18 19 20 21 22 23 24 25 26 27 28 29 30 31 32 33 34 35 36 37 38 39 40 41 42 43 44 45 46 47 48 49 50
000
ASUS44 KFWD 190601
RWRTX
NORTH TEXAS HOURLY WEATHER ROUNDUP
NATIONAL WEATHER SERVICE FORT WORTH TX
1200 AM CST SUN NOV 19 2017

NOTE: "FAIR" INDICATES FEW OR NO CLOUDS BELOW 12,000 FEET WITH NO
SIGNIFICANT WEATHER AND/OR OBSTRUCTIONS TO VISIBILITY.

TXZ118-119-190700-
DALLAS/FORT WORTH METROPLEX

CITY           SKY/WX    TMP DP  RH WIND       PRES   REMARKS
DFW AIRPORT    CLEAR     49  35  58 NW8       30.28S
6HR MIN TEMP:  48; 6HR MAX TEMP:  58;

DALLAS LOVE    PTCLDY    48  36  63 NW6       30.30S
6HR MIN TEMP:  48; 6HR MAX TEMP:  58;

FTW MEACHAM    CLEAR     47  37  68 NW5       30.30S
6HR MIN TEMP:  46; 6HR MAX TEMP:  58;

DAL-EXECUTIVE  CLEAR     48  36  63 NW7       30.29S
6HR MIN TEMP:  47; 6HR MAX TEMP:  57;

FTW-ALLIANCE   CLEAR     39  33  79 W3        30.30S
6HR MIN TEMP:  38; 6HR MAX TEMP:  56;

FTW-NAS-JRB    CLEAR     47  36  65 NW7       30.31S
6HR MIN TEMP:  47; 6HR MAX TEMP:  58;

FTW-SPINKS     CLEAR     44  34  66 CALM      30.32S
6HR MIN TEMP:  43; 6HR MAX TEMP:  57;

ARLINGTON      CLEAR     43  35  73 CALM      30.30S
6HR MIN TEMP:  42; 6HR MAX TEMP:  57;

GRAND PRAIRIE  CLEAR     50  33  53 W3        30.32S
6HR MIN TEMP:  50; 6HR MAX TEMP:  58;

ADDISON        CLEAR     47  36  64 CALM      30.31S
6HR MIN TEMP:  47; 6HR MAX TEMP:  55;

MESQUITE       CLEAR     47  33  59 N3        30.30S
6HR MIN TEMP:  46; 6HR MAX TEMP:  56;

LANCASTER      CLEAR     45  34  65 NW5       30.30F
6HR MIN TEMP:  45; 6HR MAX TEMP:  56;

$$

TXZ091>094-102>105-117-120-121-131>134-190700-
NORTH CENTRAL TEXAS

CITY           SKY/WX    TMP DP  RH WIND       PRES   REMARKS
SHRMAN/DENISON CLEAR     42  34  74 W3        30.30S
6HR MIN TEMP:  40; 6HR MAX TEMP:  53;

GAINESVILLE    CLEAR     43  32  65 W9        30.32S WCI  38
6HR MIN TEMP:  39; 6HR MAX TEMP:  51;

BOWIE          CLEAR     40  33  76 W3        30.32R
6HR MIN TEMP:  38; 6HR MAX TEMP:  52;

DENTON         CLEAR     39  34  82 NW6       30.31R WCI  35
6HR MIN TEMP:  39; 6HR MAX TEMP:  53;

MCKINNEY       CLEAR     44  35  70 NW5       30.29S
6HR MIN TEMP:  43; 6HR MAX TEMP:  55;

BONHAM         CLEAR    N/A N/A N/A W6        30.28S
ROCKWALL       CLEAR     47  36  64 CALM      30.29F
6HR MIN TEMP:  47; 6HR MAX TEMP:  55;

TERRELL        CLEAR     49  35  58 NW5       30.29S
6HR MIN TEMP:  49; 6HR MAX TEMP:  57;

WAXAHACHIE     CLEAR     45  37  73 CALM      30.32S
6HR MIN TEMP:  45; 6HR MAX TEMP:  56;

CLEBURNE       CLEAR     43  36  75 NW6       30.33S WCI  39
GRANBURY       CLEAR     42  34  73 SW6       30.34R WCI  38
6HR MIN TEMP:  42; 6HR MAX TEMP:  58;

$$

TXZ083>090-098>101-113>116-127>130-139>142-154-155-190700-
WESTERN NORTH TEXAS

CITY           SKY/WX    TMP DP  RH WIND       PRES   REMARKS
WICHITA FALLS  CLEAR     40  29  64 NW8       30.32S WCI  34
6HR MIN TEMP:  40; 6HR MAX TEMP:  49;

WF-KICKAPOO    CLEAR     43  32  64 NW5       30.35S
6HR MIN TEMP:  43; 6HR MAX TEMP:  55;

VERNON         CLEAR     37  21  52 W6        30.35S WCI  33
6HR MIN TEMP:  37; 6HR MAX TEMP:  90;

ABILENE        CLEAR     42  34  73 CALM      30.35R
6HR MIN TEMP:  41; 6HR MAX TEMP:  55;

ABILENE-DYESS  CLEAR     36  31  83 W3          N/A
6HR MIN TEMP:  36; 6HR MAX TEMP:  56;

GRAHAM           N/A     35  35 100 CALM      30.33R
6HR MIN TEMP:  35; 6HR MAX TEMP:  54;

BRECKENRIDGE   CLEAR     40  33  76 W3        30.34S
6HR MIN TEMP:  40; 6HR MAX TEMP:  57;

CISCO          CLEAR     39  32  75 NW3       30.34S
EASTLAND       CLEAR     32  29  90 CALM      30.34R
6HR MIN TEMP:  31; 6HR MAX TEMP:  55;

RANGER         CLEAR     34  31  88 N3        30.33S
6HR MIN TEMP:  34; 6HR MAX TEMP:  85;

MINERAL WELLS  CLEAR     41  32  70 W5        30.32R WCI  38
6HR MIN TEMP:  40; 6HR MAX TEMP:  56;

STEPHENVILLE   CLEAR     43  33  68 NW5       30.35S
6HR MIN TEMP:  43; 6HR MAX TEMP:  56;

COMANCHE       CLEAR     45  34  65 CALM      30.34S
6HR MIN TEMP:  44; 6HR MAX TEMP:  56;

COLEMAN        CLEAR     41  32  70 CALM      30.35S
6HR MIN TEMP:  41; 6HR MAX TEMP:  57;

$$

TXZ143>147-156>162-174-175-190700-
CENTRAL TEXAS

CITY           SKY/WX    TMP DP  RH WIND       PRES   REMARKS
WACO           CLEAR     48  36  63 NW7       30.31S
6HR MIN TEMP:  47; 6HR MAX TEMP:  62;

WACO-MCGREGOR  LGT RAIN  47  36  65 NW6       30.32R
6HR MIN TEMP:  47; 6HR MAX TEMP:  61; 6HR PCP: TRACE;

HILLSBORO      CLEAR     42  35  76 CALM      30.30S
6HR MIN TEMP:  42; 6HR MAX TEMP:  58;

CORSICANA      CLEAR     47  37  68 N5        30.31R
6HR MIN TEMP:  46; 6HR MAX TEMP:  59;

MEXIA          CLEAR     46  36  66 NW7       30.29S
6HR MIN TEMP:  46; 6HR MAX TEMP:  60;

HEARNE         CLEAR     50  37  62 N7        30.30R
6HR MIN TEMP:  50; 6HR MAX TEMP:  64;

CAMERON        CLEAR     51  37  58 N7        30.30R
6HR MIN TEMP:  51; 6HR MAX TEMP:  64;

TEMPLE         PTCLDY    49  35  58 N8        30.31R
6HR MIN TEMP:  49; 6HR MAX TEMP:  62;

KILLEEN        CLEAR     48  35  60 N10       30.31R
6HR MIN TEMP:  48; 6HR MAX TEMP:  62;

KILLEEN-SKYLRK CLEAR     50  35  56 N10       30.32R
6HR MIN TEMP:  49; 6HR MAX TEMP:  63;

FORT HOOD      CLEAR     49  34  56 N10       30.28R
6HR MIN TEMP:  49; 6HR MAX TEMP:  62;

GATESVILLE     CLEAR     46  36  66 CALM      30.34S
HAMILTON       CLEAR     45  34  66 N5        30.33S
6HR MIN TEMP:  44; 6HR MAX TEMP:  58;

LAMPASAS       CLEAR     48  35  62 N5        30.32R
6HR MIN TEMP:  48; 6HR MAX TEMP:  60;

$$

TXZ095>097-106>112-122>126-135>138-148>153-164>167-190700-
EAST TEXAS

CITY           SKY/WX    TMP DP  RH WIND       PRES   REMARKS
PARIS          CLEAR     43  34  70 NW7       30.27S WCI  39
6HR MIN TEMP:  42; 6HR MAX TEMP:  52;

SULPHUR SPRNGS CLEAR     47  37  65 NW6       30.30R
6HR MIN TEMP:  47; 6HR MAX TEMP:  55;

MOUNT PLEASANT CLEAR     44  36  73 NW3       30.28R
6HR MIN TEMP:  44; 6HR MAX TEMP:  54;

GILMER         CLOUDY    45  36  70 CALM      30.27S
6HR MIN TEMP:  44; 6HR MAX TEMP:  55;

MINEOLA        CLEAR     46  36  66 CALM      30.28R
TYLER          CLEAR     46  35  65 NW5       30.27R
6HR MIN TEMP:  46; 6HR MAX TEMP:  58;

LONGVIEW       NOT AVBL
MARSHALL       CLEAR     45  35  67 N6        30.27S
6HR MIN TEMP:  45; 6HR MAX TEMP:  56;

ATHENS         CLEAR     43  34  70 CALM      30.27S
PALESTINE      PTCLDY    46  37  73 N6        30.29S
JACKSONVILLE   CLEAR     48  37  63 N6        30.27R
HENDERSON      CLEAR     47  37  67 NW3       30.27R
6HR MIN TEMP:  47; 6HR MAX TEMP:  59;

CENTER         CLEAR     48  33  56 N8        30.25R
6HR MIN TEMP:  48; 6HR MAX TEMP:  63;

NACOGDOCHES    CLEAR     50  35  56 N10       30.25R
6HR MIN TEMP:  50; 6HR MAX TEMP:  64;

LUFKIN         CLEAR     51  36  56 N9        30.24R
6HR MIN TEMP:  51; 6HR MAX TEMP:  66;

$$

SUPPLEMENTAL OBSERVATIONS (NWS FORT WORTH AREA)

CITY           SKY/WX    TMP DP  RH WIND       PRES   REMARKS
$$

SUPPLEMENTAL OBSERVATIONS (NWS NORMAN AREA)

CITY           SKY/WX    TMP DP  RH WIND       PRES   REMARKS
GOODLETT         N/A     39  17  40 NW12      30.35S WCI  32
ODELL            N/A     34  25  69 SW5       30.36R WCI  30
CROWELL



USA.gov is the U.S. government's official web portal to all federal, state and local government web resources and services.